This demonstration page uses our WeatherBlox Daily Observations layout. Learn more.

Left ArrowRight Arrow

Hourly Observations for April 11, 2019

Temp ( °F °C ) Dew Point ( °F °C ) Humidity (%) Winds ( mph kmh ) Pressure ( in mb ) Visibility ( mi km ) Precip ( " mm )
12:15 am 00:15 Cloudy with Mist and Fog 31 -0.6 28 -2.2 89 89 N 23 37 29.61 1003 3 4 0.00 0.00
12:35 am 00:35 Cloudy 31 -0.5 28 -2.5 87 87 N 23 37 29.60 1002 10 16 0.00 0.00
12:55 am 00:55 Cloudy with Mist and Fog 31 -0.7 27 -2.7 87 87 N 28 44 29.59 1002 5 8 0.00 0.00
1:15 am 01:15 Cloudy with Mist and Fog 31 -0.8 27 -2.9 86 86 N 21 33 29.61 1003 5 8 0.00 0.00
1:35 am 01:35 Cloudy 31 -0.7 27 -3 85 85 N 24 39 29.60 1002 10 16 0.00 0.00
1:55 am 01:55 Cloudy 31 -0.7 26 -3.2 83 83 N 25 41 29.59 1002 10 16 0.00 0.00
2:15 am 02:15 Cloudy 30 -1 26 -3.5 83 83 NNW 23 37 29.59 1002 10 16 0.00 0.00
2:35 am 02:35 Cloudy 30 -1.2 25 -3.8 83 83 NNW 24 39 29.59 1002 10 16 0.00 0.00
2:55 am 02:55 Cloudy 29 -1.5 25 -4 83 83 NNW 29 46 29.57 1001 10 16 0.00 0.00
3:15 am 03:15 Cloudy with Light Wintry Mix 29 -1.5 25 -3.7 85 85 NNW 24 39 29.58 1002 4 6 0.00 0.00
3:35 am 03:35 Windy with Snow Likely 29 -1.5 26 -3.5 86 86 NNW 24 39 29.57 1001 3 5 0.00 0.00
3:55 am 03:55 Windy with Snow Likely 30 -1.2 27 -3 88 88 NNW 23 37 29.57 1001 3 4 0.01 0.25
4:15 am 04:15 Cloudy 29 -1.5 26 -3.2 88 88 NNW 23 37 29.57 1001 1 2 0.02 0.51
4:35 am 04:35 Cloudy with Snow 29 -1.7 26 -3.2 90 90 NNW 25 41 29.56 1001 1 1 0.04 1.02
4:55 am 04:55 Cloudy with Heavy Snow 29 -1.8 26 -3.1 91 91 NNW 23 37 29.56 1001 1 1 0.05 1.27
5:15 am 05:15 Cloudy with Heavy Snow 29 -1.8 26 -3.1 91 91 NNW 23 37 29.55 1001 1 1 0.01 0.25
5:35 am 05:35 Cloudy with Heavy Snow 29 -1.8 27 -3 92 92 NNW 23 37 29.55 1001 1 1 0.02 0.51
5:55 am 05:55 Cloudy with Heavy Snow 29 -1.8 27 -3 92 92 NNW 24 39 29.55 1001 0 0 0.04 1.02
6:15 am 06:15 Cloudy with Snow 29 -1.9 26 -3.1 92 92 NNW 22 35 29.54 1000 1 1 0.01 0.25
6:35 am 06:35 Cloudy with Snow 28 -2 26 -3.1 92 92 NNW 22 35 29.54 1000 1 1 0.02 0.51
6:55 am 06:55 Cloudy with Snow 28 -2 26 -3.3 91 91 NNW 21 33 29.54 1000 1 1 0.03 0.76
7:15 am 07:15 Windy with Snow Likely 28 -2.2 26 -3.5 91 91 NNW 23 37 29.54 1000 1 1 0.00 0.00
7:35 am 07:35 Windy with Snow Likely 28 -2.1 26 -3.6 90 90 NNW 26 43 29.54 1000 1 1 0.00 0.00
7:55 am 07:55 Windy with Snow Likely 28 -2.1 26 -3.6 90 90 NNW 23 37 29.54 1000 1 1 0.00 0.00
8:15 am 08:15 Windy with Snow Likely 28 -2.1 25 -3.7 89 89 NNW 25 41 29.55 1001 1 2 0.00 0.00
8:35 am 08:35 Windy with Snow Likely 28 -2.2 25 -4 88 88 NW 26 43 29.55 1001 2 2 0.00 0.00
8:55 am 08:55 Windy with Snow Likely 28 -2 25 -4 86 86 NNW 25 41 29.53 1000 2 3 0.00 0.00
9:15 am 09:15 Cloudy with Mist and Fog 28 -2.2 24 -4.3 86 86 NNW 26 43 29.54 1000 2 3 0.00 0.00
9:35 am 09:35 Windy with Snow Likely 28 -2.3 24 -4.5 85 85 NNW 26 43 29.54 1000 2 3 0.00 0.00
9:55 am 09:55 Windy with Snow Likely 28 -2.5 24 -4.5 86 86 NNW 26 43 29.54 1000 2 2 0.00 0.00
10:15 am 10:15 Windy with Snow Likely 28 -2 25 -4 86 86 NNW 30 48 29.53 1000 1 2 0.00 0.00
10:35 am 10:35 Windy with Snow Likely 29 -1.7 25 -4.1 84 84 NNW 32 52 29.54 1000 1 2 0.00 0.00
10:55 am 10:55 Windy with Snow Likely 29 -1.7 24 -4.2 83 83 NNW 32 52 29.54 1000 1 2 0.01 0.25
11:15 am 11:15 Windy with Snow Likely 29 -1.7 24 -4.2 83 83 NNW 33 54 29.55 1001 1 2 0.00 0.00
11:35 am 11:35 Windy with Snow Likely 29 -1.7 24 -4.2 83 83 NNW 32 52 29.55 1001 1 2 0.00 0.00
11:55 am 11:55 Windy with Snow Likely 29 -1.7 24 -4.3 83 83 NNW 32 52 29.56 1001 1 1 0.00 0.00
12:15 pm 12:15 Windy with Snow Likely 29 -1.8 24 -4.3 83 83 NW 30 48 29.57 1001 1 2 0.00 0.00
12:35 pm 12:35 Cloudy with Mist and Fog 29 -1.5 25 -4 83 83 NW 29 46 29.57 1001 1 2 0.00 0.00
12:55 pm 12:55 Cloudy with Haze 30 -1.2 25 -4 82 82 NW 35 56 29.57 1001 1 2 0.00 0.00
1:15 pm 13:15 Windy with Snow Likely 30 -1.1 24 -4.5 78 78 NNW 32 52 29.57 1001 1 1 0.00 0.00
1:35 pm 13:35 Windy with Snow Likely 30 -1 25 -4 80 80 NNW 33 54 29.57 1001 1 2 0.00 0.00
1:55 pm 13:55 Windy with Snow Likely 30 -1.2 24 -4.4 79 79 NNW 35 56 29.58 1002 1 2 0.00 0.00
2:15 pm 14:15 Cloudy with Haze 30 -1.1 24 -4.4 79 79 NW 31 50 29.59 1002 2 3 0.00 0.00
2:35 pm 14:35 Cloudy with Haze 30 -1.2 24 -4.6 78 78 NW 29 46 29.60 1002 4 6 0.00 0.00
2:55 pm 14:55 Cloudy with Haze 29 -1.6 23 -5.2 77 77 NW 32 52 29.61 1003 3 4 0.00 0.00
3:15 pm 15:15 Cloudy with Haze 30 -1.1 24 -4.3 79 79 NW 31 50 29.61 1003 4 6 0.00 0.00
3:35 pm 15:35 Cloudy 31 -0.4 24 -4.4 75 75 NW 37 59 29.61 1003 7 11 0.00 0.00
3:55 pm 15:55 Cloudy 31 -0.8 23 -4.9 74 74 NW 33 54 29.62 1003 7 11 0.00 0.00
4:15 pm 16:15 Cloudy with Haze 30 -1 24 -4.4 78 78 NNW 30 48 29.64 1004 3 5 0.00 0.00
4:35 pm 16:35 Very Windy with Snow Likely 31 -0.7 24 -4.6 75 75 NW 38 61 29.63 1003 4 6 0.00 0.00
4:55 pm 16:55 Windy with Snow Likely 30 -1 24 -4.6 77 77 NW 37 59 29.66 1004 2 3 0.00 0.00
5:15 pm 17:15 Mostly Cloudy with Light Snow 30 -1.2 23 -4.8 77 77 NW 30 48 29.66 1004 7 11 0.00 0.00
5:35 pm 17:35 Cloudy 30 -1 23 -4.9 75 75 NW 38 61 29.68 1005 10 16 0.00 0.00
5:55 pm 17:55 Cloudy 30 -1.1 23 -4.8 76 76 NW 29 46 29.69 1005 7 11 0.00 0.00
6:15 pm 18:15 Cloudy 30 -1 23 -5 75 75 NW 32 52 29.70 1006 10 16 0.00 0.00
6:35 pm 18:35 Windy with Snow Likely 29 -1.8 23 -4.8 80 80 NW 31 50 29.71 1006 5 8 0.00 0.00
6:55 pm 18:55 Windy with Snow Likely 29 -1.6 23 -5.2 77 77 NW 26 43 29.71 1006 10 16 0.00 0.00
7:15 pm 19:15 Windy with Snow Likely 29 -1.7 23 -5.1 78 78 NW 28 44 29.72 1007 7 11 0.00 0.00
7:35 pm 19:35 Windy with Snow Likely 29 -1.7 23 -4.8 80 80 NW 25 41 29.73 1007 2 3 0.00 0.00
7:55 pm 19:55 Windy with Snow Likely 28 -2.1 24 -4.6 83 83 NNW 26 43 29.75 1007 1 2 0.00 0.00
8:15 pm 20:15 Windy with Snow Likely 27 -2.9 23 -5 86 86 NW 24 39 29.76 1008 1 2 0.00 0.00
8:35 pm 20:35 Cloudy 27 -2.6 23 -5.2 83 83 NW 21 33 29.76 1008 10 16 0.00 0.00
8:55 pm 20:55 Cloudy 28 -2.3 21 -6 76 76 NW 28 44 29.77 1008 10 16 0.00 0.00
9:15 pm 21:15 Partly Cloudy 27 -2.6 20 -6.6 74 74 WNW 23 37 29.79 1009 10 16 0.00 0.00
9:35 pm 21:35 Mostly Cloudy 27 -3 20 -6.6 76 76 WNW 22 35 29.80 1009 10 16 0.00 0.00
9:55 pm 21:55 Partly Cloudy 27 -3 20 -6.7 76 76 WNW 25 41 29.81 1009 10 16 0.00 0.00
10:15 pm 22:15 Clear 27 -3 19 -7 74 74 WNW 26 43 29.82 1010 10 16 0.00 0.00
10:35 pm 22:35 Mostly Cloudy 27 -3 19 -7 74 74 WNW 24 39 29.82 1010 10 16 0.00 0.00
10:55 pm 22:55 Partly Cloudy 26 -3.5 19 -7 77 77 WNW 22 35 29.82 1010 10 16 0.00 0.00
11:15 pm 23:15 Clear 26 -3.5 19 -7.2 76 76 WNW 23 37 29.82 1010 10 16 0.00 0.00
11:35 pm 23:35 Clear 26 -3.5 19 -7.3 75 75 WNW 20 31 29.82 1010 10 16 0.00 0.00
11:55 pm 23:55 Clear 26 -3.5 19 -7.2 76 76 WNW 24 39 29.82 1010 10 16 0.00 0.00

Powered by AerisWeather